Location: *
(58.7167°N, 26.1833°E)
Time: 10:34:09
(UTC+00:00)

Cosmos 1697 Rocket - Pass Details

Date: 25 August 2019
Orbit: 831 x 845 km, 71.0° (Epoch: 15 September)

Event Time Altitude Azimuth Distance (km) Brightness Sun altitude
Rises 19:30:33 0° 321° (NW) 3,418 8.0 -12.9°
Reaches altitude 10° 19:33:16 10° 311° (NW) 2,479 6.6 -13.1°
Maximum altitude 19:38:04 29° 253° (WSW) 1,509 4.3 -13.5°
Drops below altitude 10° 19:42:51 10° 195° (SSW) 2,464 4.8 -13.9°
Enters shadow 19:43:51 - 190° (S) 2,792 5.0 -14.0°
